DAL802 KLAX-KDTW

Flight info

Callsign DAL802
Flight time 3h 29m
Altitude 35000
Route ORCKA5 LAS J146 DVC KANON HGO HLC LMN MZV SAMPL VCTRZ2
Aircraft A21N/M-SDE2E3FGHIRWXY/LB1

Departure

Time 2026-05-05 16:13
Airport Los Angeles International Airport (KLAX)

Arrival

Time 2026-05-05 19:43
Airport Detroit Metropolitan Wayne County Airport (KDTW)
Time Latitude Longitude Altitude Speed Heading
2026-05-05 15:34 33.94713 -118.40480 101 ft 0 kts 132°
2026-05-05 16:01 33.94720 -118.40491 101 ft 4 kts 132°
2026-05-05 16:02 33.94736 -118.40512 101 ft 1 kts 132°
2026-05-05 16:02 33.94753 -118.40534 101 ft 4 kts 130°
2026-05-05 16:02 33.94769 -118.40559 101 ft 4 kts 123°
2026-05-05 16:02 33.94780 -118.40587 102 ft 4 kts 95°
2026-05-05 16:03 33.94779 -118.40614 102 ft 4 kts 84°
2026-05-05 16:03 33.94778 -118.40625 102 ft 0 kts 84°
2026-05-05 16:08 33.94779 -118.40617 102 ft 3 kts 84°
2026-05-05 16:08 33.94781 -118.40586 102 ft 4 kts 85°
2026-05-05 16:08 33.94784 -118.40547 102 ft 5 kts 85°
2026-05-05 16:08 33.94788 -118.40500 102 ft 6 kts 83°
2026-05-05 16:09 33.94796 -118.40436 101 ft 9 kts 81°
2026-05-05 16:09 33.94806 -118.40358 101 ft 10 kts 81°
2026-05-05 16:09 33.94850 -118.40295 102 ft 11 kts 21°
2026-05-05 16:09 33.94902 -118.40224 105 ft 13 kts 75°
2026-05-05 16:10 33.94913 -118.40115 105 ft 14 kts 84°
2026-05-05 16:10 33.94923 -118.40008 105 ft 8 kts 83°
2026-05-05 16:10 33.94937 -118.39944 105 ft 7 kts 58°
2026-05-05 16:10 33.94947 -118.39929 106 ft 0 kts 38°
2026-05-05 16:12 33.95032 -118.39935 114 ft 10 kts 297°
2026-05-05 16:13 33.94905 -118.41287 112 ft 141 kts 263°
2026-05-05 16:13 33.94767 -118.42632 266 ft 171 kts 263°
2026-05-05 16:13 33.94629 -118.44016 944 ft 164 kts 262°
2026-05-05 16:14 33.94323 -118.46957 1775 ft 194 kts 263°
2026-05-05 16:14 33.93990 -118.50419 2647 ft 225 kts 263°
2026-05-05 16:15 33.93598 -118.54488 3568 ft 257 kts 263°
2026-05-05 16:15 33.93174 -118.58822 5117 ft 263 kts 263°
2026-05-05 16:16 33.92744 -118.63227 6621 ft 268 kts 263°
2026-05-05 16:16 33.92274 -118.67716 8033 ft 273 kts 257°
2026-05-05 16:17 33.90011 -118.71298 9322 ft 282 kts 209°
2026-05-05 16:17 33.88179 -118.72174 9969 ft 287 kts 193°
2026-05-05 16:18 33.84185 -118.71207 10641 ft 321 kts 144°
2026-05-05 16:18 33.82673 -118.69161 10888 ft 338 kts 119°
2026-05-05 16:18 33.82158 -118.63585 11943 ft 347 kts 72°
2026-05-05 16:19 33.83232 -118.61003 12550 ft 348 kts 52°
2026-05-05 16:19 33.84747 -118.58724 13167 ft 350 kts 50°
2026-05-05 16:19 33.87654 -118.53950 14373 ft 357 kts 55°
2026-05-05 16:20 33.90367 -118.48878 15542 ft 364 kts 57°
2026-05-05 16:20 33.92602 -118.44541 16478 ft 369 kts 57°
2026-05-05 16:21 33.95479 -118.39385 17574 ft 374 kts 54°
2026-05-05 16:22 33.99947 -118.31544 19074 ft 382 kts 54°
2026-05-05 16:22 34.02969 -118.26219 19994 ft 388 kts 54°
2026-05-05 16:23 34.06036 -118.20818 20833 ft 394 kts 55°
2026-05-05 16:23 34.07587 -118.18080 21233 ft 396 kts 55°
2026-05-05 16:23 34.10719 -118.12540 22010 ft 402 kts 55°
2026-05-05 16:24 34.12296 -118.09744 22384 ft 404 kts 55°
2026-05-05 16:24 34.13881 -118.06928 22744 ft 407 kts 55°
2026-05-05 16:24 34.17082 -118.01244 23472 ft 412 kts 56°
2026-05-05 16:25 34.18689 -117.98365 23835 ft 415 kts 56°
2026-05-05 16:25 34.21944 -117.92561 24505 ft 420 kts 56°
2026-05-05 16:25 34.23590 -117.89641 24805 ft 422 kts 55°
2026-05-05 16:26 34.26920 -117.83732 25394 ft 428 kts 56°
2026-05-05 16:26 34.30273 -117.77738 25951 ft 433 kts 56°
2026-05-05 16:27 34.31969 -117.74707 26218 ft 435 kts 56°
2026-05-05 16:27 34.33670 -117.71663 26479 ft 438 kts 56°
2026-05-05 16:27 34.35400 -117.68623 26733 ft 440 kts 54°
2026-05-05 16:27 34.37196 -117.65605 26991 ft 443 kts 54°
2026-05-05 16:28 34.39010 -117.62571 27252 ft 445 kts 54°
2026-05-05 16:28 34.40829 -117.59527 27485 ft 447 kts 54°
2026-05-05 16:28 34.42658 -117.56464 27710 ft 450 kts 54°
2026-05-05 16:28 34.44492 -117.53386 27939 ft 452 kts 54°
2026-05-05 16:29 34.46338 -117.50288 28147 ft 454 kts 54°
2026-05-05 16:29 34.48189 -117.47177 28372 ft 456 kts 54°
2026-05-05 16:29 34.50025 -117.44090 28579 ft 459 kts 54°
2026-05-05 16:29 34.51919 -117.40905 28793 ft 461 kts 54°
2026-05-05 16:30 34.53769 -117.37790 29003 ft 463 kts 54°
2026-05-05 16:30 34.55653 -117.34612 29184 ft 465 kts 54°
2026-05-05 16:30 34.57542 -117.31425 29375 ft 467 kts 54°
2026-05-05 16:30 34.59443 -117.28207 29564 ft 469 kts 54°
2026-05-05 16:31 34.61349 -117.24985 29758 ft 471 kts 54°
2026-05-05 16:31 34.63260 -117.21748 29954 ft 473 kts 54°
2026-05-05 16:31 34.65182 -117.18496 30134 ft 475 kts 54°
2026-05-05 16:31 34.67110 -117.15230 30293 ft 477 kts 54°
2026-05-05 16:32 34.69043 -117.11946 30454 ft 479 kts 54°
2026-05-05 16:32 34.70989 -117.08639 30603 ft 481 kts 54°
2026-05-05 16:32 34.72937 -117.05328 30763 ft 483 kts 54°
2026-05-05 16:32 34.74898 -117.01989 30901 ft 485 kts 54°
2026-05-05 16:33 34.76861 -116.98643 31055 ft 487 kts 54°
2026-05-05 16:33 34.78828 -116.95290 31272 ft 488 kts 54°
2026-05-05 16:33 34.80797 -116.91931 31506 ft 487 kts 54°
2026-05-05 16:33 34.82760 -116.88584 31744 ft 485 kts 54°
2026-05-05 16:34 34.84715 -116.85239 31984 ft 484 kts 54°
2026-05-05 16:34 34.86660 -116.81909 32228 ft 482 kts 54°
2026-05-05 16:34 34.88592 -116.78597 32477 ft 479 kts 54°
2026-05-05 16:34 34.90521 -116.75289 32709 ft 478 kts 54°
2026-05-05 16:35 34.92530 -116.72082 32955 ft 475 kts 49°
2026-05-05 16:35 34.94745 -116.69113 33123 ft 473 kts 46°
2026-05-05 16:35 34.99251 -116.63221 33244 ft 477 kts 46°
2026-05-05 16:36 35.03783 -116.57261 33326 ft 482 kts 47°
2026-05-05 16:36 35.08349 -116.51234 33485 ft 484 kts 47°
2026-05-05 16:37 35.10633 -116.48213 33600 ft 484 kts 47°
2026-05-05 16:37 35.12917 -116.45190 33719 ft 484 kts 47°
2026-05-05 16:37 35.15199 -116.42167 33844 ft 484 kts 47°
2026-05-05 16:37 35.17476 -116.39149 33972 ft 484 kts 47°
2026-05-05 16:38 35.19758 -116.36122 34092 ft 484 kts 47°
2026-05-05 16:38 35.22036 -116.33098 34226 ft 483 kts 47°
2026-05-05 16:38 35.24314 -116.30071 34331 ft 484 kts 47°
2026-05-05 16:38 35.26587 -116.27043 34451 ft 483 kts 47°
2026-05-05 16:39 35.28858 -116.24020 34583 ft 482 kts 47°
2026-05-05 16:39 35.31125 -116.21000 34699 ft 481 kts 47°
2026-05-05 16:39 35.33386 -116.17986 34808 ft 480 kts 47°
2026-05-05 16:39 35.35636 -116.14981 34943 ft 479 kts 47°
2026-05-05 16:40 35.40158 -116.08939 34974 ft 483 kts 47°
2026-05-05 16:40 35.44692 -116.02865 34956 ft 488 kts 47°
2026-05-05 16:41 35.49293 -115.96690 34939 ft 493 kts 47°
2026-05-05 16:41 35.53938 -115.90444 34939 ft 497 kts 47°
2026-05-05 16:42 35.58616 -115.84146 34943 ft 499 kts 47°
2026-05-05 16:42 35.63288 -115.77841 34940 ft 498 kts 47°
2026-05-05 16:43 35.67925 -115.71489 34944 ft 497 kts 48°
2026-05-05 16:43 35.72544 -115.65127 34934 ft 498 kts 48°
2026-05-05 16:44 35.77167 -115.58748 34944 ft 500 kts 48°
2026-05-05 16:44 35.81801 -115.52349 34943 ft 501 kts 48°
2026-05-05 16:45 35.86436 -115.45931 34944 ft 503 kts 48°
2026-05-05 16:45 35.91090 -115.39493 34943 ft 504 kts 48°
2026-05-05 16:46 35.95763 -115.33008 34946 ft 506 kts 48°
2026-05-05 16:46 36.00449 -115.26487 34944 ft 508 kts 48°
2026-05-05 16:47 36.05119 -115.19976 34948 ft 499 kts 49°
2026-05-05 16:47 36.08951 -115.12929 34932 ft 495 kts 68°
2026-05-05 16:48 36.11432 -115.04970 34944 ft 497 kts 72°
2026-05-05 16:48 36.13828 -114.96994 34912 ft 499 kts 71°
2026-05-05 16:49 36.16299 -114.88952 34901 ft 501 kts 71°
2026-05-05 16:49 36.18782 -114.80862 34899 ft 505 kts 72°
2026-05-05 16:50 36.21275 -114.72731 34900 ft 506 kts 72°
2026-05-05 16:50 36.23773 -114.64562 34909 ft 509 kts 72°
2026-05-05 16:51 36.26280 -114.56325 34918 ft 511 kts 72°
2026-05-05 16:51 36.28791 -114.48060 34928 ft 514 kts 72°
2026-05-05 16:52 36.31311 -114.39742 34930 ft 516 kts 73°
2026-05-05 16:52 36.33830 -114.31406 34930 ft 518 kts 73°
2026-05-05 16:53 36.36354 -114.23034 34938 ft 519 kts 73°
2026-05-05 16:53 36.38874 -114.14637 34930 ft 519 kts 73°
2026-05-05 16:54 36.41386 -114.06249 34930 ft 520 kts 73°
2026-05-05 16:54 36.43910 -113.97791 34934 ft 525 kts 73°
2026-05-05 16:55 36.46431 -113.89313 34934 ft 529 kts 73°
2026-05-05 16:55 36.48962 -113.80693 34941 ft 533 kts 73°
2026-05-05 16:56 36.51498 -113.72067 34942 ft 535 kts 73°
2026-05-05 16:56 36.54073 -113.63427 34945 ft 526 kts 73°
2026-05-05 16:57 36.56584 -113.54949 34943 ft 521 kts 73°
2026-05-05 16:57 36.59061 -113.46484 34941 ft 521 kts 73°
2026-05-05 16:58 36.61538 -113.38005 34961 ft 521 kts 73°
2026-05-05 16:58 36.64010 -113.29521 34977 ft 521 kts 73°
2026-05-05 16:59 36.66470 -113.21020 34981 ft 521 kts 74°
2026-05-05 16:59 36.68931 -113.12502 34986 ft 522 kts 74°
2026-05-05 17:00 36.71389 -113.03981 34994 ft 523 kts 74°
2026-05-05 17:00 36.73842 -112.95434 35002 ft 525 kts 74°
2026-05-05 17:01 36.76301 -112.86850 35023 ft 527 kts 74°
2026-05-05 17:01 36.78755 -112.78243 35018 ft 527 kts 74°
2026-05-05 17:02 36.81210 -112.69620 35018 ft 527 kts 74°
2026-05-05 17:02 36.83662 -112.60979 35015 ft 529 kts 75°
2026-05-05 17:03 36.86113 -112.52303 35018 ft 529 kts 75°
2026-05-05 17:03 36.88556 -112.43637 35014 ft 530 kts 75°
2026-05-05 17:04 36.90989 -112.34946 35019 ft 530 kts 75°
2026-05-05 17:04 36.93412 -112.26309 35020 ft 530 kts 75°
2026-05-05 17:05 36.95841 -112.17607 35001 ft 530 kts 75°
2026-05-05 17:05 36.98265 -112.08897 34976 ft 531 kts 75°
2026-05-05 17:06 37.00689 -112.00167 34958 ft 531 kts 75°
2026-05-05 17:06 37.03106 -111.91432 34949 ft 534 kts 75°
2026-05-05 17:07 37.05542 -111.82622 34953 ft 538 kts 75°
2026-05-05 17:07 37.07973 -111.73765 34948 ft 537 kts 75°
2026-05-05 17:08 37.10400 -111.64918 34941 ft 537 kts 75°
2026-05-05 17:08 37.12808 -111.56065 34939 ft 537 kts 75°
2026-05-05 17:09 37.14817 -111.48701 34938 ft 538 kts 75°
2026-05-05 17:09 37.17223 -111.39828 34931 ft 536 kts 75°
2026-05-05 17:10 37.19620 -111.30962 34940 ft 537 kts 75°
2026-05-05 17:10 37.22016 -111.22072 34943 ft 538 kts 75°
2026-05-05 17:11 37.24407 -111.13169 34932 ft 539 kts 75°
2026-05-05 17:11 37.26801 -111.04246 34897 ft 540 kts 75°
2026-05-05 17:12 37.29185 -110.95293 34925 ft 542 kts 75°
2026-05-05 17:12 37.31568 -110.86310 34923 ft 541 kts 75°
2026-05-05 17:13 37.33942 -110.77338 34922 ft 542 kts 76°
2026-05-05 17:13 37.36313 -110.68347 34919 ft 543 kts 76°
2026-05-05 17:14 37.38681 -110.59328 34914 ft 544 kts 76°
2026-05-05 17:14 37.41048 -110.50291 34911 ft 544 kts 76°
2026-05-05 17:15 37.43403 -110.41263 34910 ft 544 kts 76°
2026-05-05 17:15 37.45754 -110.32220 34912 ft 544 kts 76°
2026-05-05 17:16 37.48096 -110.23190 34912 ft 544 kts 76°
2026-05-05 17:16 37.50436 -110.14137 34919 ft 544 kts 76°
2026-05-05 17:17 37.52765 -110.05074 34923 ft 544 kts 76°
2026-05-05 17:17 37.55089 -109.96011 34704 ft 543 kts 76°
2026-05-05 17:18 37.56249 -109.91482 34381 ft 543 kts 76°
2026-05-05 17:18 37.57404 -109.86956 34157 ft 542 kts 76°
2026-05-05 17:18 37.59683 -109.77945 34243 ft 544 kts 76°
2026-05-05 17:19 37.60824 -109.73405 34350 ft 543 kts 76°
2026-05-05 17:19 37.61968 -109.68855 34476 ft 544 kts 76°
2026-05-05 17:19 37.63111 -109.64321 34594 ft 544 kts 76°
2026-05-05 17:19 37.64260 -109.59767 34716 ft 544 kts 76°
2026-05-05 17:20 37.65402 -109.55210 34829 ft 545 kts 76°
2026-05-05 17:20 37.66546 -109.50647 34950 ft 546 kts 76°
2026-05-05 17:20 37.68839 -109.41507 34980 ft 546 kts 76°
2026-05-05 17:21 37.71107 -109.32367 34956 ft 546 kts 76°
2026-05-05 17:22 37.74574 -109.18646 34980 ft 546 kts 76°
2026-05-05 17:22 37.76853 -109.09469 34971 ft 547 kts 76°
2026-05-05 17:23 37.78634 -109.02260 34968 ft 548 kts 76°
2026-05-05 17:23 37.80875 -108.93051 34968 ft 547 kts 78°
2026-05-05 17:24 37.82873 -108.83763 34972 ft 548 kts 79°
2026-05-05 17:24 37.84853 -108.74453 34974 ft 549 kts 79°
2026-05-05 17:25 37.86828 -108.65116 34980 ft 549 kts 79°
2026-05-05 17:25 37.88790 -108.55784 34985 ft 549 kts 79°
2026-05-05 17:26 37.90750 -108.46442 34974 ft 549 kts 79°
2026-05-05 17:26 37.92703 -108.37085 34979 ft 549 kts 79°
2026-05-05 17:27 37.94634 -108.27778 34994 ft 551 kts 79°
2026-05-05 17:27 37.96572 -108.18418 34985 ft 549 kts 79°
2026-05-05 17:28 37.98506 -108.09050 34988 ft 549 kts 79°
2026-05-05 17:28 38.00429 -107.99681 35007 ft 549 kts 79°
2026-05-05 17:29 38.02349 -107.90309 35007 ft 549 kts 79°
2026-05-05 17:29 38.04258 -107.80939 34984 ft 549 kts 79°
2026-05-05 17:30 38.06162 -107.71556 35010 ft 549 kts 79°
2026-05-05 17:30 38.08049 -107.62189 34999 ft 548 kts 79°
2026-05-05 17:31 38.09930 -107.52815 34977 ft 548 kts 79°
2026-05-05 17:31 38.11809 -107.43433 34969 ft 548 kts 79°
2026-05-05 17:32 38.13676 -107.34050 34957 ft 548 kts 79°
2026-05-05 17:32 38.15525 -107.24644 34954 ft 548 kts 80°
2026-05-05 17:33 38.17382 -107.15228 34945 ft 549 kts 79°
2026-05-05 17:33 38.19226 -107.05821 34935 ft 550 kts 79°
2026-05-05 17:34 38.21079 -106.96370 34938 ft 550 kts 79°
2026-05-05 17:34 38.22908 -106.86932 34935 ft 549 kts 79°
2026-05-05 17:35 38.24732 -106.77474 34959 ft 551 kts 79°
2026-05-05 17:35 38.26541 -106.67995 34983 ft 552 kts 79°
2026-05-05 17:36 38.28355 -106.58504 34999 ft 552 kts 79°
2026-05-05 17:36 38.30184 -106.49012 35026 ft 554 kts 79°
2026-05-05 17:37 38.32020 -106.39512 35058 ft 551 kts 79°
2026-05-05 17:37 38.33823 -106.30009 35093 ft 552 kts 79°
2026-05-05 17:38 38.35598 -106.20554 35077 ft 552 kts 79°
2026-05-05 17:38 38.37378 -106.11038 35057 ft 552 kts 79°
2026-05-05 17:39 38.39158 -106.01516 35028 ft 552 kts 79°
2026-05-05 17:39 38.40945 -105.91966 34991 ft 556 kts 79°
2026-05-05 17:40 38.42754 -105.82374 34950 ft 557 kts 79°
2026-05-05 17:40 38.44548 -105.72765 34932 ft 557 kts 79°
2026-05-05 17:41 38.46343 -105.63153 34951 ft 557 kts 79°
2026-05-05 17:41 38.48111 -105.53585 34977 ft 557 kts 79°
2026-05-05 17:42 38.49888 -105.43944 34985 ft 558 kts 79°
2026-05-05 17:42 38.51653 -105.34305 35002 ft 556 kts 79°
2026-05-05 17:43 38.53412 -105.24684 35015 ft 557 kts 79°
2026-05-05 17:43 38.55159 -105.15032 35027 ft 558 kts 79°
2026-05-05 17:44 38.56906 -105.05386 35025 ft 557 kts 79°
2026-05-05 17:44 38.58643 -104.95736 35016 ft 557 kts 79°
2026-05-05 17:45 38.60371 -104.86062 35017 ft 558 kts 79°
2026-05-05 17:45 38.62086 -104.76398 35012 ft 558 kts 79°
2026-05-05 17:46 38.63800 -104.66712 35018 ft 559 kts 79°
2026-05-05 17:46 38.65503 -104.57036 35001 ft 558 kts 79°
2026-05-05 17:47 38.67168 -104.47391 35013 ft 558 kts 79°
2026-05-05 17:47 38.68861 -104.37687 35028 ft 559 kts 79°
2026-05-05 17:48 38.70548 -104.27981 35029 ft 559 kts 79°
2026-05-05 17:48 38.72201 -104.18268 35031 ft 558 kts 79°
2026-05-05 17:49 38.73864 -104.08551 35029 ft 558 kts 79°
2026-05-05 17:49 38.75547 -103.98837 35037 ft 558 kts 79°
2026-05-05 17:50 38.77192 -103.89078 35040 ft 561 kts 79°
2026-05-05 17:50 38.78843 -103.79306 35038 ft 561 kts 79°
2026-05-05 17:51 38.80485 -103.69540 35041 ft 560 kts 79°
2026-05-05 17:51 38.82073 -103.59779 35049 ft 559 kts 81°
2026-05-05 17:52 38.83513 -103.49974 35041 ft 560 kts 81°
2026-05-05 17:52 38.84920 -103.40157 35038 ft 560 kts 81°
2026-05-05 17:53 38.86323 -103.30332 35038 ft 560 kts 81°
2026-05-05 17:53 38.87721 -103.20495 35048 ft 561 kts 81°
2026-05-05 17:54 38.89103 -103.10653 35050 ft 561 kts 81°
2026-05-05 17:54 38.90485 -103.00802 35052 ft 561 kts 81°
2026-05-05 17:55 38.91855 -102.90937 35049 ft 561 kts 81°
2026-05-05 17:55 38.93223 -102.81076 35049 ft 561 kts 81°
2026-05-05 17:56 38.94575 -102.71207 35058 ft 561 kts 81°
2026-05-05 17:56 38.95917 -102.61395 35063 ft 562 kts 81°
2026-05-05 17:57 38.97035 -102.53118 35061 ft 561 kts 81°
2026-05-05 17:57 38.98581 -102.41630 35059 ft 561 kts 81°
2026-05-05 17:58 38.99694 -102.33339 35060 ft 561 kts 81°
2026-05-05 17:58 39.01018 -102.23440 35062 ft 562 kts 81°
2026-05-05 17:59 39.02325 -102.13530 35062 ft 562 kts 81°
2026-05-05 17:59 39.03629 -102.03613 35059 ft 562 kts 81°
2026-05-05 17:59 39.04277 -101.98656 35177 ft 561 kts 81°
2026-05-05 18:00 39.04923 -101.93730 35463 ft 556 kts 81°
2026-05-05 18:00 39.05557 -101.88851 35766 ft 552 kts 81°
2026-05-05 18:00 39.06178 -101.84045 35846 ft 553 kts 81°
2026-05-05 18:00 39.06813 -101.79137 35708 ft 559 kts 81°
2026-05-05 18:01 39.07459 -101.74106 35504 ft 565 kts 81°
2026-05-05 18:01 39.08083 -101.69217 35287 ft 565 kts 81°
2026-05-05 18:01 39.08717 -101.64226 35065 ft 565 kts 81°
2026-05-05 18:02 39.09979 -101.54261 35034 ft 564 kts 81°
2026-05-05 18:02 39.11222 -101.44279 35056 ft 564 kts 81°
2026-05-05 18:03 39.12468 -101.34305 35060 ft 564 kts 81°
2026-05-05 18:03 39.13712 -101.24328 35070 ft 564 kts 81°
2026-05-05 18:04 39.14950 -101.14351 35068 ft 564 kts 81°
2026-05-05 18:04 39.16184 -101.04372 35070 ft 564 kts 81°
2026-05-05 18:05 39.17399 -100.94393 35071 ft 564 kts 81°
2026-05-05 18:05 39.18602 -100.84412 35069 ft 564 kts 81°
2026-05-05 18:06 39.19801 -100.74422 35071 ft 563 kts 81°
2026-05-05 18:06 39.20982 -100.64519 35059 ft 564 kts 81°
2026-05-05 18:07 39.22159 -100.54517 35067 ft 564 kts 81°
2026-05-05 18:07 39.23326 -100.44526 35069 ft 563 kts 81°
2026-05-05 18:08 39.24488 -100.34524 35068 ft 565 kts 83°
2026-05-05 18:08 39.25668 -100.24474 35065 ft 567 kts 81°
2026-05-05 18:09 39.27774 -100.14662 35074 ft 568 kts 72°
2026-05-05 18:09 39.30191 -100.04904 35078 ft 575 kts 72°
2026-05-05 18:10 39.32604 -99.94993 35089 ft 582 kts 71°
2026-05-05 18:10 39.35031 -99.84959 35082 ft 588 kts 72°
2026-05-05 18:11 39.37452 -99.74865 35086 ft 588 kts 72°
2026-05-05 18:11 39.39878 -99.64766 35071 ft 588 kts 72°
2026-05-05 18:12 39.42297 -99.54658 35071 ft 588 kts 72°
2026-05-05 18:12 39.44684 -99.44609 35083 ft 588 kts 72°
2026-05-05 18:13 39.47075 -99.34501 35084 ft 587 kts 72°
2026-05-05 18:13 39.49463 -99.24393 35087 ft 587 kts 72°
2026-05-05 18:14 39.51839 -99.14271 35086 ft 587 kts 72°
2026-05-05 18:14 39.54198 -99.04153 35076 ft 587 kts 72°
2026-05-05 18:15 39.56554 -98.94024 35076 ft 587 kts 72°
2026-05-05 18:15 39.58908 -98.83890 35081 ft 587 kts 72°
2026-05-05 18:16 39.61246 -98.73731 35081 ft 588 kts 72°
2026-05-05 18:16 39.63573 -98.63586 35109 ft 588 kts 72°
2026-05-05 18:17 39.65900 -98.53400 35080 ft 589 kts 72°
2026-05-05 18:17 39.68222 -98.43199 35074 ft 590 kts 72°
2026-05-05 18:18 39.70539 -98.32982 35070 ft 590 kts 72°
2026-05-05 18:18 39.72844 -98.22750 35063 ft 591 kts 72°
2026-05-05 18:19 39.75149 -98.12494 35063 ft 591 kts 72°
2026-05-05 18:19 39.77441 -98.02232 35052 ft 592 kts 72°
2026-05-05 18:20 39.79720 -97.91948 35049 ft 592 kts 72°
2026-05-05 18:20 39.82000 -97.81656 35049 ft 591 kts 72°
2026-05-05 18:21 39.84265 -97.71370 35044 ft 591 kts 72°
2026-05-05 18:21 39.86508 -97.61127 35035 ft 591 kts 72°
2026-05-05 18:22 39.88763 -97.50850 35040 ft 590 kts 72°
2026-05-05 18:22 39.90994 -97.40574 35040 ft 590 kts 72°
2026-05-05 18:23 39.93181 -97.30279 35038 ft 589 kts 72°
2026-05-05 18:23 39.95376 -97.20068 35031 ft 589 kts 72°
2026-05-05 18:24 39.97584 -97.09797 35032 ft 588 kts 72°
2026-05-05 18:24 39.99770 -96.99534 35032 ft 588 kts 72°
2026-05-05 18:25 40.01950 -96.89244 35024 ft 590 kts 72°
2026-05-05 18:25 40.04129 -96.78913 35019 ft 589 kts 72°
2026-05-05 18:26 40.06298 -96.68615 35022 ft 589 kts 72°
2026-05-05 18:26 40.08452 -96.58321 35024 ft 589 kts 72°
2026-05-05 18:27 40.10619 -96.47998 35020 ft 590 kts 72°
2026-05-05 18:27 40.12756 -96.37668 35016 ft 589 kts 72°
2026-05-05 18:28 40.15928 -96.22254 35023 ft 588 kts 72°
2026-05-05 18:28 40.18037 -96.11920 35020 ft 588 kts 72°
2026-05-05 18:29 40.20136 -96.01570 35019 ft 589 kts 72°
2026-05-05 18:29 40.22253 -95.91160 35025 ft 589 kts 72°
2026-05-05 18:30 40.24327 -95.80877 35008 ft 588 kts 72°
2026-05-05 18:30 40.26403 -95.70509 34998 ft 588 kts 73°
2026-05-05 18:31 40.28469 -95.60153 35004 ft 588 kts 72°
2026-05-05 18:31 40.30526 -95.49776 34995 ft 589 kts 73°
2026-05-05 18:32 40.32583 -95.39395 34996 ft 589 kts 73°
2026-05-05 18:32 40.34615 -95.29020 34981 ft 587 kts 73°
2026-05-05 18:33 40.36640 -95.18659 34982 ft 587 kts 73°
2026-05-05 18:33 40.38654 -95.08288 34982 ft 586 kts 73°
2026-05-05 18:34 40.40658 -94.97925 34975 ft 586 kts 73°
2026-05-05 18:34 40.42657 -94.87573 34981 ft 585 kts 73°
2026-05-05 18:35 40.44639 -94.77212 34982 ft 585 kts 73°
2026-05-05 18:35 40.46575 -94.66849 34979 ft 584 kts 72°
2026-05-05 18:36 40.48507 -94.56557 34984 ft 584 kts 73°
2026-05-05 18:36 40.50492 -94.46221 34994 ft 583 kts 72°
2026-05-05 18:37 40.52450 -94.35885 34981 ft 583 kts 73°
2026-05-05 18:37 40.54362 -94.25592 34976 ft 583 kts 73°
2026-05-05 18:38 40.56291 -94.15195 34967 ft 582 kts 73°
2026-05-05 18:38 40.58185 -94.04918 34965 ft 581 kts 73°
2026-05-05 18:39 40.60185 -93.94623 34970 ft 579 kts 68°
2026-05-05 18:39 40.62538 -93.84513 34968 ft 578 kts 68°
2026-05-05 18:40 40.64896 -93.74408 34971 ft 578 kts 68°
2026-05-05 18:40 40.67241 -93.64281 34981 ft 577 kts 69°
2026-05-05 18:41 40.69552 -93.54250 35163 ft 573 kts 69°
2026-05-05 18:41 40.70710 -93.49219 35281 ft 574 kts 69°
2026-05-05 18:41 40.71854 -93.44196 35398 ft 573 kts 69°
2026-05-05 18:42 40.73006 -93.39159 35526 ft 573 kts 69°
2026-05-05 18:42 40.74153 -93.34130 35650 ft 573 kts 69°
2026-05-05 18:42 40.75297 -93.29099 35771 ft 573 kts 69°
2026-05-05 18:42 40.76443 -93.24065 35902 ft 572 kts 69°
2026-05-05 18:43 40.77585 -93.19039 36038 ft 572 kts 69°
2026-05-05 18:43 40.78722 -93.14005 36164 ft 572 kts 69°
2026-05-05 18:43 40.79858 -93.08973 36293 ft 572 kts 69°
2026-05-05 18:43 40.80990 -93.03947 36425 ft 572 kts 69°
2026-05-05 18:44 40.82121 -92.98924 36538 ft 571 kts 69°
2026-05-05 18:44 40.83249 -92.93894 36660 ft 570 kts 69°
2026-05-05 18:44 40.84370 -92.88882 36787 ft 569 kts 69°
2026-05-05 18:44 40.85487 -92.83878 36908 ft 568 kts 69°
2026-05-05 18:45 40.87707 -92.73856 37015 ft 570 kts 69°
2026-05-05 18:45 40.89887 -92.63801 36989 ft 569 kts 69°
2026-05-05 18:46 40.91719 -92.55503 36971 ft 568 kts 69°
2026-05-05 18:46 40.93936 -92.45568 36966 ft 560 kts 68°
2026-05-05 18:47 40.96119 -92.35664 36967 ft 561 kts 69°
2026-05-05 18:47 40.98270 -92.25753 36969 ft 561 kts 69°
2026-05-05 18:48 41.00416 -92.15836 36968 ft 560 kts 69°
2026-05-05 18:48 41.02553 -92.05918 36965 ft 560 kts 69°
2026-05-05 18:49 41.04677 -91.95998 36962 ft 559 kts 69°
2026-05-05 18:49 41.06780 -91.86150 36967 ft 555 kts 69°
2026-05-05 18:50 41.08879 -91.76287 36963 ft 556 kts 69°
2026-05-05 18:50 41.10964 -91.66423 36950 ft 555 kts 69°
2026-05-05 18:51 41.13019 -91.56667 36954 ft 555 kts 69°
2026-05-05 18:51 41.15090 -91.46799 36966 ft 555 kts 69°
2026-05-05 18:52 41.17146 -91.36930 36953 ft 554 kts 69°
2026-05-05 18:52 41.19192 -91.27073 36949 ft 554 kts 70°
2026-05-05 18:53 41.21225 -91.17217 36952 ft 554 kts 70°
2026-05-05 18:53 41.23253 -91.07358 36948 ft 554 kts 70°
2026-05-05 18:54 41.25274 -90.97487 37247 ft 550 kts 70°
2026-05-05 18:54 41.26268 -90.92612 37554 ft 544 kts 69°
2026-05-05 18:54 41.27255 -90.87760 37642 ft 545 kts 69°
2026-05-05 18:55 41.28251 -90.82873 37494 ft 550 kts 70°
2026-05-05 18:55 41.29253 -90.77937 37293 ft 555 kts 70°
2026-05-05 18:55 41.30252 -90.72983 37063 ft 555 kts 70°
2026-05-05 18:55 41.31242 -90.68024 36821 ft 555 kts 70°
2026-05-05 18:56 41.32239 -90.63072 36572 ft 553 kts 69°
2026-05-05 18:56 41.33306 -90.58228 36452 ft 553 kts 69°
2026-05-05 18:56 41.35503 -90.48431 36602 ft 551 kts 68°
2026-05-05 18:57 41.36592 -90.43546 36717 ft 550 kts 69°
2026-05-05 18:57 41.37661 -90.38652 36839 ft 549 kts 69°
2026-05-05 18:57 41.38716 -90.33793 36943 ft 546 kts 69°
2026-05-05 18:57 41.39793 -90.28940 36959 ft 546 kts 68°
2026-05-05 18:58 41.41946 -90.19211 36945 ft 549 kts 69°
2026-05-05 18:58 41.44062 -90.09397 36932 ft 553 kts 69°
2026-05-05 18:59 41.46202 -89.99551 36937 ft 553 kts 69°
2026-05-05 18:59 41.48325 -89.89741 36929 ft 551 kts 69°
2026-05-05 19:00 41.50458 -89.79926 36919 ft 550 kts 69°
2026-05-05 19:00 41.52569 -89.70105 36929 ft 551 kts 69°
2026-05-05 19:01 41.54655 -89.60303 36929 ft 551 kts 69°
2026-05-05 19:01 41.56720 -89.50539 36930 ft 550 kts 69°
2026-05-05 19:02 41.58798 -89.40713 36929 ft 549 kts 70°
2026-05-05 19:02 41.60865 -89.30885 36932 ft 550 kts 70°
2026-05-05 19:03 41.62924 -89.21055 36934 ft 549 kts 70°
2026-05-05 19:03 41.64960 -89.11225 36931 ft 548 kts 70°
2026-05-05 19:04 41.66989 -89.01423 36928 ft 548 kts 70°
2026-05-05 19:04 41.69031 -88.91611 36925 ft 547 kts 70°
2026-05-05 19:05 41.71051 -88.81803 36917 ft 547 kts 70°
2026-05-05 19:05 41.73061 -88.71976 36909 ft 547 kts 70°
2026-05-05 19:06 41.75053 -88.62172 36901 ft 546 kts 70°
2026-05-05 19:06 41.77040 -88.52359 36899 ft 546 kts 70°
2026-05-05 19:07 41.79020 -88.42536 36901 ft 546 kts 71°
2026-05-05 19:07 41.80994 -88.32713 36894 ft 545 kts 71°
2026-05-05 19:08 41.82941 -88.22959 36809 ft 544 kts 71°
2026-05-05 19:08 41.83911 -88.18069 36615 ft 543 kts 71°
2026-05-05 19:08 41.84896 -88.13102 36381 ft 542 kts 72°
2026-05-05 19:09 41.85851 -88.08280 36143 ft 542 kts 72°
2026-05-05 19:09 41.86816 -88.03398 35898 ft 542 kts 72°
2026-05-05 19:09 41.87780 -87.98502 35653 ft 542 kts 72°
2026-05-05 19:09 41.88738 -87.93618 35404 ft 542 kts 73°
2026-05-05 19:10 41.89700 -87.88710 35155 ft 543 kts 73°
2026-05-05 19:10 41.90655 -87.83819 34907 ft 543 kts 73°
2026-05-05 19:10 41.91611 -87.78914 34660 ft 543 kts 73°
2026-05-05 19:10 41.92564 -87.74017 34411 ft 543 kts 74°
2026-05-05 19:11 41.93514 -87.69112 34162 ft 543 kts 74°
2026-05-05 19:11 41.94448 -87.64280 33915 ft 543 kts 75°
2026-05-05 19:11 41.95397 -87.59367 33662 ft 543 kts 75°
2026-05-05 19:11 41.96342 -87.54455 33406 ft 543 kts 75°
2026-05-05 19:12 41.97284 -87.49546 33168 ft 543 kts 75°
2026-05-05 19:12 41.98032 -87.44573 32905 ft 543 kts 84°
2026-05-05 19:12 41.98363 -87.39526 32664 ft 542 kts 86°
2026-05-05 19:12 41.98659 -87.34487 32415 ft 542 kts 86°
2026-05-05 19:13 41.98964 -87.29426 32164 ft 542 kts 86°
2026-05-05 19:13 41.99271 -87.24372 31913 ft 542 kts 86°
2026-05-05 19:13 41.99578 -87.19321 31656 ft 542 kts 86°
2026-05-05 19:13 41.99883 -87.14286 31411 ft 542 kts 87°
2026-05-05 19:14 42.00186 -87.09241 31165 ft 541 kts 87°
2026-05-05 19:14 42.00490 -87.04174 30920 ft 545 kts 87°
2026-05-05 19:14 42.01090 -86.93975 30815 ft 548 kts 87°
2026-05-05 19:15 42.01388 -86.88856 30620 ft 548 kts 87°
2026-05-05 19:15 42.01682 -86.83749 30391 ft 548 kts 87°
2026-05-05 19:15 42.01973 -86.78637 30148 ft 548 kts 88°
2026-05-05 19:15 42.02263 -86.73535 29899 ft 548 kts 88°
2026-05-05 19:16 42.02552 -86.68431 29649 ft 548 kts 88°
2026-05-05 19:16 42.02837 -86.63320 29738 ft 549 kts 88°
2026-05-05 19:16 42.03397 -86.53144 29663 ft 541 kts 88°
2026-05-05 19:17 42.03675 -86.48098 29452 ft 545 kts 88°
2026-05-05 19:17 42.03951 -86.42967 29222 ft 550 kts 88°
2026-05-05 19:17 42.04226 -86.37845 28976 ft 549 kts 88°
2026-05-05 19:17 42.04500 -86.32730 28854 ft 548 kts 88°
2026-05-05 19:18 42.05042 -86.22533 28875 ft 547 kts 88°
2026-05-05 19:18 42.05419 -86.12468 28880 ft 533 kts 95°
2026-05-05 19:19 42.05024 -86.03028 28435 ft 530 kts 96°
2026-05-05 19:19 42.04817 -85.98064 28122 ft 532 kts 96°
2026-05-05 19:19 42.04613 -85.93092 27852 ft 533 kts 96°
2026-05-05 19:20 42.04402 -85.88106 27601 ft 534 kts 96°
2026-05-05 19:20 42.04185 -85.83124 27344 ft 534 kts 96°
2026-05-05 19:20 42.03962 -85.78146 27098 ft 535 kts 96°
2026-05-05 19:20 42.03735 -85.73141 26849 ft 535 kts 96°
2026-05-05 19:21 42.03508 -85.68136 26601 ft 536 kts 97°
2026-05-05 19:21 42.03281 -85.63214 26348 ft 536 kts 96°
2026-05-05 19:21 42.03048 -85.58212 26101 ft 538 kts 96°
2026-05-05 19:21 42.02816 -85.53199 25849 ft 536 kts 96°
2026-05-05 19:22 42.02592 -85.48204 25483 ft 533 kts 96°
2026-05-05 19:22 42.02375 -85.43249 24783 ft 529 kts 96°
2026-05-05 19:22 42.02159 -85.38341 23992 ft 524 kts 96°
2026-05-05 19:22 42.01941 -85.33475 23201 ft 519 kts 96°
2026-05-05 19:23 42.01723 -85.28716 22423 ft 514 kts 96°
2026-05-05 19:23 42.01499 -85.23880 21612 ft 509 kts 96°
2026-05-05 19:23 42.01282 -85.19212 20829 ft 504 kts 97°
2026-05-05 19:23 42.01058 -85.14477 20052 ft 499 kts 97°
2026-05-05 19:24 42.00839 -85.09846 19326 ft 494 kts 97°
2026-05-05 19:24 42.00620 -85.05313 18699 ft 489 kts 97°
2026-05-05 19:24 42.00393 -85.00807 18329 ft 477 kts 97°
2026-05-05 19:24 42.00146 -84.96406 18190 ft 466 kts 94°
2026-05-05 19:25 41.99955 -84.92103 18262 ft 459 kts 97°
2026-05-05 19:25 41.99748 -84.87826 18062 ft 459 kts 98°
2026-05-05 19:25 41.99512 -84.83559 17902 ft 457 kts 98°
2026-05-05 19:25 41.99286 -84.79357 17756 ft 441 kts 98°
2026-05-05 19:26 41.99077 -84.75335 17629 ft 423 kts 98°
2026-05-05 19:26 41.98880 -84.71494 17488 ft 407 kts 98°
2026-05-05 19:26 41.98678 -84.67715 17366 ft 405 kts 98°
2026-05-05 19:26 41.98470 -84.63944 17264 ft 405 kts 98°
2026-05-05 19:27 41.98267 -84.60169 17154 ft 405 kts 98°
2026-05-05 19:27 41.98064 -84.56397 17056 ft 404 kts 98°
2026-05-05 19:27 41.97859 -84.52628 16989 ft 404 kts 98°
2026-05-05 19:27 41.97657 -84.48866 16985 ft 404 kts 98°
2026-05-05 19:28 41.97453 -84.45105 16990 ft 404 kts 98°
2026-05-05 19:28 41.97244 -84.41336 16996 ft 404 kts 98°
2026-05-05 19:28 41.97032 -84.37581 17000 ft 404 kts 98°
2026-05-05 19:28 41.96821 -84.33813 17005 ft 404 kts 98°
2026-05-05 19:29 41.96635 -84.30039 17004 ft 406 kts 95°
2026-05-05 19:29 41.96845 -84.26259 16634 ft 406 kts 85°
2026-05-05 19:29 41.97228 -84.22497 15856 ft 407 kts 84°
2026-05-05 19:29 41.97618 -84.18752 15263 ft 402 kts 84°
2026-05-05 19:30 41.97987 -84.15056 14762 ft 395 kts 84°
2026-05-05 19:30 41.98338 -84.11382 14302 ft 397 kts 85°
2026-05-05 19:30 41.98691 -84.07709 13871 ft 394 kts 83°
2026-05-05 19:30 41.99337 -84.04156 13535 ft 391 kts 74°
2026-05-05 19:31 42.00146 -84.00671 13249 ft 390 kts 73°
2026-05-05 19:31 42.00964 -83.97200 13036 ft 389 kts 73°
2026-05-05 19:31 42.01766 -83.93779 12852 ft 388 kts 73°
2026-05-05 19:31 42.02679 -83.90374 12660 ft 387 kts 63°
2026-05-05 19:32 42.04181 -83.87394 12491 ft 384 kts 47°
2026-05-05 19:32 42.05957 -83.84727 12335 ft 382 kts 44°
2026-05-05 19:32 42.07757 -83.82100 12177 ft 381 kts 44°
2026-05-05 19:32 42.09507 -83.79508 12015 ft 367 kts 45°
2026-05-05 19:33 42.11114 -83.77098 11939 ft 352 kts 45°
2026-05-05 19:33 42.12723 -83.74675 11939 ft 345 kts 45°
2026-05-05 19:33 42.14269 -83.72189 11958 ft 347 kts 54°
2026-05-05 19:33 42.15284 -83.69236 11847 ft 349 kts 72°
2026-05-05 19:34 42.16006 -83.66120 11574 ft 348 kts 74°
2026-05-05 19:34 42.16710 -83.63007 11228 ft 347 kts 73°
2026-05-05 19:34 42.17198 -83.60916 10998 ft 345 kts 73°
2026-05-05 19:35 42.18734 -83.54860 10281 ft 342 kts 63°
2026-05-05 19:35 42.20127 -83.52336 9901 ft 331 kts 36°
2026-05-05 19:35 42.22021 -83.50689 9487 ft 321 kts 21°
2026-05-05 19:35 42.23998 -83.49324 9004 ft 320 kts 20°
2026-05-05 19:36 42.25986 -83.47951 8514 ft 321 kts 21°
2026-05-05 19:36 42.27956 -83.46595 7963 ft 320 kts 20°
2026-05-05 19:36 42.29937 -83.45236 7561 ft 317 kts 21°
2026-05-05 19:36 42.31904 -83.43894 7100 ft 317 kts 21°
2026-05-05 19:37 42.33871 -83.42559 6693 ft 315 kts 21°
2026-05-05 19:37 42.35785 -83.41140 6323 ft 314 kts 26°
2026-05-05 19:37 42.37613 -83.39582 5956 ft 306 kts 27°
2026-05-05 19:37 42.39332 -83.37882 5600 ft 301 kts 43°
2026-05-05 19:38 42.40453 -83.35580 5283 ft 296 kts 68°
2026-05-05 19:38 42.40807 -83.32904 4970 ft 286 kts 94°
2026-05-05 19:38 42.40263 -83.30378 4655 ft 272 kts 126°
2026-05-05 19:38 42.38931 -83.28731 4324 ft 252 kts 160°
2026-05-05 19:39 42.37292 -83.28209 4020 ft 237 kts 178°
2026-05-05 19:39 42.35697 -83.28019 3679 ft 230 kts 183°
2026-05-05 19:39 42.34149 -83.28255 3337 ft 217 kts 200°
2026-05-05 19:39 42.32835 -83.28975 3101 ft 193 kts 211°
2026-05-05 19:40 42.31741 -83.29887 2882 ft 176 kts 211°
2026-05-05 19:40 42.30746 -83.30630 2635 ft 159 kts 213°
2026-05-05 19:40 42.29817 -83.31315 2372 ft 145 kts 213°
2026-05-05 19:40 42.28950 -83.31956 2153 ft 143 kts 213°
2026-05-05 19:41 42.28079 -83.32596 1975 ft 142 kts 213°
2026-05-05 19:41 42.27219 -83.33247 1805 ft 141 kts 214°
2026-05-05 19:41 42.26356 -83.33885 1566 ft 142 kts 213°
2026-05-05 19:41 42.25494 -83.34499 1352 ft 138 kts 213°
2026-05-05 19:42 42.24665 -83.35132 1149 ft 135 kts 213°
2026-05-05 19:42 42.23837 -83.35720 968 ft 132 kts 211°
2026-05-05 19:42 42.23023 -83.36335 783 ft 135 kts 212°
2026-05-05 19:42 42.22215 -83.36929 654 ft 122 kts 209°
2026-05-05 19:43 42.21629 -83.37363 650 ft 74 kts 208°
2026-05-05 19:43 42.21246 -83.37645 653 ft 47 kts 205°
2026-05-05 19:43 42.21017 -83.37751 652 ft 23 kts 179°
2026-05-05 19:43 42.20854 -83.37712 653 ft 25 kts 181°
2026-05-05 19:44 42.20693 -83.37798 652 ft 26 kts 209°
2026-05-05 19:44 42.20531 -83.37918 653 ft 27 kts 208°
2026-05-05 19:44 42.20368 -83.38038 653 ft 26 kts 208°
2026-05-05 19:44 42.20234 -83.38134 653 ft 21 kts 207°
2026-05-05 19:45 42.20143 -83.38156 653 ft 11 kts 154°
2026-05-05 19:45 42.20097 -83.38064 653 ft 13 kts 125°
2026-05-05 19:45 42.20019 -83.37972 653 ft 16 kts 147°
2026-05-05 19:45 42.19915 -83.37890 653 ft 19 kts 148°
2026-05-05 19:46 42.19815 -83.37760 654 ft 21 kts 115°
2026-05-05 19:46 42.19745 -83.37589 653 ft 21 kts 120°
2026-05-05 19:46 42.19672 -83.37412 653 ft 22 kts 119°
2026-05-05 19:46 42.19600 -83.37228 653 ft 23 kts 109°
2026-05-05 19:47 42.19618 -83.37024 653 ft 23 kts 55°
2026-05-05 19:47 42.19750 -83.36897 654 ft 24 kts 29°
2026-05-05 19:47 42.19897 -83.36789 653 ft 24 kts 28°
2026-05-05 19:47 42.20045 -83.36679 653 ft 22 kts 29°
2026-05-05 19:48 42.20119 -83.36602 652 ft 13 kts 73°
2026-05-05 19:48 42.20119 -83.36478 652 ft 14 kts 77°
2026-05-05 19:48 42.20201 -83.36420 652 ft 15 kts 12°
2026-05-05 19:48 42.20302 -83.36383 652 ft 15 kts 20°
2026-05-05 19:49 42.20386 -83.36326 652 ft 7 kts 28°
2026-05-05 19:49 42.20415 -83.36304 652 ft 7 kts 29°
2026-05-05 19:49 42.20421 -83.36241 652 ft 1 kts 122°
2026-05-05 19:49 42.20414 -83.36225 652 ft 2 kts 119°
2026-05-05 19:50 42.20405 -83.36202 652 ft 3 kts 120°
2026-05-05 19:50 42.20400 -83.36191 652 ft 0 kts 119°